Weather in Mardin

Turkey     37°18′59″N   40°45′02″E
temp.,
°C
wind,
m/s
gust,
m/s
humid.,
%
clouds,
%
prec.,
mm/h
press.,
hPa
HPBL,
m
25 january, mon
mon2500:00+4nne2342100 0.0 102624
03:00+3nne334266 0.0 102523
06:00+3nne33420 0.0 102525
09:00+5nne22410 0.0 102550
12:00+10ese12270 0.0 1024516
15:00+11s12260 0.0 1022785
18:00+6n114667 0.0 102323
21:00+6nne224683 0.0 102422
26 january, tue
tue2600:00+6n2247100 0.0 102522
03:00+5nne224997 0.0 102522
06:00+4n234816 0.0 102523
09:00+6n234512 0.0 102562
12:00+10n2133100 0.0 1024380
15:00+11nne123251 0.0 1022687
18:00+7n225013 0.0 102326
21:00+7nne225055 0.0 102322
27 january, wed
wed2700:00+6ne2249100 0.0 102322
03:00+6nne2246100 0.0 102222
06:00+5ene2241100 0.0 102122
09:00+7ene2243100 0.0 102240
12:00+11se353495 0.0 1020571
15:00+11se463697 0.0 1018677
18:00+9e3750100 0.0 1017185
21:00+8ese51152100 0.0 1018299
28 january, thu
thu2800:00+7e4856100 0.0 1016205
03:00+7ese61256100 0.0 1015256
06:00+7ese71555100 0.0 1013335
09:00+8ese71550100 0.0 1013556
12:00+12se91241100 0.0 10111133
15:00+12s6845100 0.0 10091485
18:00+9w2260100 0.0 100844
21:00+7ene2378100 0.8 1009130
29 january, fri
fri2900:00+5sw388470 0.2 1010309
03:00+5sw489285 2.7 1010539
06:00+4ssw2296100 0.1 1011158
09:00+4ssw369184 0.4 1012480
12:00+7sw8115961 1.1 10121625
15:00+7sw7106272 1.5 10111336
18:00+5sw6116698 1.8 1012816
21:00+3wsw227457 1.9 101546